Vorticity
2 3 4 5 5 4 6 7 7 7 8 8 8 9 8 8 9 8 8 7 6 5 4 3 3 5 6 3 7 3 6 4 4 4 4 5 5 10 11 12 10 3 7 15 -1 14 -1
5 5 3 3 4 5 5 5 6 7 6 7 7 7 8 8 8 7 7 7 6 5 4 4 5 5 5 1 14 -1 9 3 3 4 4 5 3 10 4 8 14 3 22 -7 15 12 8
5 5 5 6 6 3 4 4 5 5 6 6 7 7 7 6 7 8 8 7 6 6 5 6 7 5 6 9 10 3 9 3 3 4 4 4 4 7 4 14 4 5 4 17 -6 1 8
5 5 6 6 6 6 7 4 3 4 5 5 6 7 7 7 7 6 6 7 6 6 5 6 6 5 2 14 0 5 8 4 3 5 5 4 5 4 5 4 3 7 -9 16 18 -2 -1
5 5 6 6 4 4 4 6 6 3 3 3 5 5 6 7 7 7 7 6 6 5 5 5 6 6 15 10 -5 6 4 10 3 5 5 5 5 1 2 4 5 2 1 5 14 16 8
6 6 6 6 7 7 7 6 5 6 6 3 2 4 5 6 7 8 7 8 8 8 7 6 10 23 8 -8 5 5 8 9 3 5 6 5 8 2 2 7 3 -3 0 -1 9 15 -5
6 7 8 9 9 10 8 10 10 10 6 7 4 3 2 3 3 5 6 7 11 11 9 4 -3 7 8 4 4 8 13 6 2 6 7 3 12 5 1 7 4 4 4 6 7 -7 8
10 9 8 7 9 7 8 5 7 7 11 11 9 5 4 3 2 2 3 4 5 5 8 2 2 5 4 5 8 10 20 3 3 8 5 3 14 7 2 7 4 6 5 1 19 -5 10
10 10 9 9 7 9 10 8 7 7 7 9 13 12 8 5 6 5 4 3 6 6 4 7 11 12 10 12 14 16 11 4 3 8 1 13 4 5 6 9 3 7 9 2 5 11 28
9 9 10 11 14 10 10 10 8 9 8 8 8 12 12 12 11 9 8 9 10 12 28 13 17 29 25 26 24 17 1 1 4 4 4 14 0 -2 12 10 3 13 1 4 3 22 -8
13 11 10 7 9 14 15 11 10 11 9 8 10 8 8 9 9 11 10 9 7 14 14 18 17 11 9 6 17 12 -2 1 1 -1 10 0 17 1 10 5 5 1 2 7 30 23 28
6 5 9 10 11 6 2 16 14 13 11 11 8 9 7 7 14 8 9 14 13 20 14 9 10 7 10 13 6 -1 3 2 -2 12 5 21 -2 14 5 5 5 4 7 47 1 20 18
10 10 13 13 10 15 7 6 12 18 11 11 12 12 11 8 10 4 8 10 16 2 14 20 7 9 15 12 10 9 8 -1 12 16 8 -1 42 6 1 9 14 -4 16 11 18 13 -10
10 13 9 7 -16 7 17 -2 3 3 9 8 14 14 9 11 7 9 13 14 5 19 0 4 1 -1 -1 -3 9 12 12 13 8 12 8 18 16 14 -32 16 -3 22 11 8 10 5 -32
13 9 0 24 16 0 7 27 -6 6 -12 5 10 15 11 17 12 15 6 12 0 30 18 2 3 5 14 30 12 12 15 17 24 -4 5 19 18 -38 22 9 8 0 -4 -3 3 37 24
6 2 10 17 15 25 11 10 18 20 10 12 11 20 16 18 11 13 8 -23 1 2 3 14 13 6 4 9 8 8 16 8 4 2 1 5 18 27 10 -9 15 21 1 2 13 9 16
15 21 18 18 16 21 21 25 20 20 18 10 14 19 17 23 22 9 5 -13 9 -10 12 7 10 -8 4 -9 7 9 6 -2 0 16 5 -7 28 -16 -19 -4 7 10 10 2 9 3 1
17 14 16 15 19 18 21 23 23 20 23 25 16 13 10 18 11 26 -9 2 -11 -8 28 5 2 2 1 1 9 3 -7 -10 -21 -20 3 1 14 1 -9 44 20 26 20 2 -3 10 -12
12 13 12 8 21 21 25 24 9 24 17 7 11 14 12 20 4 12 -7 22 20 -4 9 14 -0 25 30 16 11 34 38 25 24 24 10 8 3 11 8 39 3 7 -21 -4 12 8 -17
10 13 13 10 6 5 -1 6 19 11 17 7 13 2 18 7 10 11 21 19 16 20 11 32 15 12 14 -2 -16 -9 11 -4 -2 -6 -22 -12 4 7 -35 -40 -6 -3 8 13 14 18 21
12 12 14 15 -0 10 5 4 6 17 9 4 -2 7 5 3 28 11 -2 -11 -10 8 37 -1 25 10 -2 11 17 27 7 5 3 4 26 23 21 21 9 6 2 4 4 11 21 3 14
12 11 11 15 16 8 -2 -6 7 12 9 22 5 -18 18 -4 21 19 13 6 14 23 3 -7 3 -14 10 10 8 1 3 5 16 14 -2 6 10 5 5 9 7 10 2 16 61 53 33
11 15 13 10 17 14 17 6 0 -1 6 11 12 21 2 4 -6 -5 7 6 19 26 23 22 14 15 10 13 22 12 9 6 -2 -5 -9 3 -2 11 9 26 7 51 48 13 -10 -21 0
7 10 15 18 12 10 14 15 18 9 9 6 15 -0 7 17 19 21 27 25 1 0 4 4 4 2 10 1 7 10 9 6 5 6 1 -1 -2 6 -3 17 38 22 21 -26 15 45 3
6 6 8 6 17 15 11 14 17 14 13 7 6 6 9 14 11 0 -8 -3 3 2 4 9 10 16 10 -4 2 25 27 44 57 49 33 29 17 8 -9 4 -44 1 69 12 6 -11 48
7 17 2 -2 4 9 17 10 7 14 18 16 14 11 6 5 16 13 15 16 18 14 6 4 6 -5 13 10 17 12 -7 -13 20 21 27 20 36 16 -7 -1 -5 17 -24 -25 -23 44 -8
28 -1 1 9 9 9 4 9 13 6 5 8 9 15 16 13 9 11 9 9 9 9 6 11 16 12 15 18 17 14 10 -17 2 1 -2 -19 -9 28 10 -6 22 -4 16 29 36 -12 -6
6 4 1 4 2 2 1 1 1 9 6 6 2 6 10 13 13 14 15 12 14 11 8 3 4 14 4 12 15 10 15 -11 20 1 -1 2 7 6 33 16 33 40 34 39 9 -10 -3
2 11 15 15 14 13 6 5 4 9 8 5 3 5 8 3 -19 -24 -5 3 10 7 10 14 10 -17 -10 1 5 32 12 -9 14 8 25 22 11 -3 -25 -15 -44 -14 -39 -28 -3 0 -10
Height
3167 3167 3165 3162 3161 3159 3159 3159 3158 3157 3156 3155 3154 3153 3152 3152 3151 3150 3150 3149 3149 3149 3148 3148 3147 3147 3146 3145 3145 3143 3142 3141 3139 3138 3136 3134 3132 3130 3127 3125 3123 3121 3120 3118 3117 3114 3112
3165 3165 3165 3164 3161 3160 3158 3157 3156 3156 3155 3154 3152 3151 3151 3150 3149 3148 3148 3147 3147 3147 3146 3145 3146 3145 3144 3144 3142 3141 3140 3139 3138 3136 3134 3133 3131 3129 3126 3124 3122 3120 3117 3116 3114 3111 3107
3161 3160 3159 3159 3161 3160 3159 3156 3154 3153 3152 3152 3151 3150 3148 3148 3148 3147 3147 3146 3145 3145 3144 3144 3143 3142 3142 3142 3140 3139 3138 3137 3136 3134 3133 3131 3129 3127 3125 3122 3120 3117 3116 3114 3110 3106 3102
3158 3158 3157 3156 3153 3154 3157 3156 3153 3151 3149 3149 3149 3148 3147 3146 3145 3145 3145 3144 3143 3143 3142 3141 3141 3140 3139 3139 3138 3137 3136 3135 3134 3132 3131 3129 3127 3126 3124 3122 3119 3116 3112 3108 3108 3104 3099
3152 3152 3152 3152 3151 3150 3147 3150 3152 3149 3148 3145 3144 3144 3145 3144 3143 3142 3141 3141 3141 3140 3140 3139 3139 3138 3138 3136 3136 3135 3133 3133 3132 3131 3129 3127 3126 3123 3122 3119 3117 3112 3109 3107 3103 3101 3095
3147 3146 3145 3145 3146 3146 3145 3143 3144 3146 3144 3143 3141 3141 3141 3141 3140 3139 3138 3138 3137 3137 3137 3136 3135 3137 3135 3134 3132 3131 3130 3130 3129 3128 3127 3126 3124 3121 3119 3117 3115 3111 3106 3102 3101 3097 3091
3141 3140 3139 3138 3138 3139 3137 3138 3138 3138 3138 3138 3137 3136 3137 3137 3136 3136 3136 3135 3137 3135 3132 3132 3132 3131 3130 3130 3129 3128 3127 3127 3127 3126 3125 3123 3122 3119 3116 3114 3112 3108 3105 3100 3099 3094 3084
3137 3136 3133 3132 3133 3133 3132 3130 3131 3132 3131 3131 3131 3131 3131 3131 3131 3131 3132 3131 3131 3131 3129 3127 3127 3126 3125 3124 3124 3124 3124 3126 3124 3122 3122 3121 3118 3117 3114 3111 3110 3107 3103 3098 3092 3089 3084
3129 3129 3129 3128 3127 3126 3126 3124 3124 3124 3124 3124 3126 3125 3124 3125 3125 3126 3126 3127 3126 3125 3123 3122 3121 3120 3119 3119 3118 3119 3121 3121 3121 3120 3119 3118 3117 3113 3111 3109 3106 3105 3100 3095 3090 3082 3078
3124 3123 3122 3121 3121 3120 3119 3119 3117 3118 3118 3118 3118 3120 3120 3120 3123 3120 3121 3122 3122 3121 3119 3116 3114 3113 3113 3113 3114 3115 3117 3119 3118 3117 3115 3114 3113 3111 3108 3106 3104 3099 3096 3092 3086 3082 3076
3118 3116 3115 3114 3114 3113 3113 3111 3111 3112 3112 3111 3113 3114 3115 3115 3116 3116 3118 3118 3118 3120 3118 3113 3110 3110 3110 3112 3112 3114 3115 3114 3114 3113 3114 3111 3109 3107 3105 3103 3100 3098 3093 3088 3082 3078 3075
3112 3111 3109 3109 3107 3107 3106 3105 3103 3104 3105 3105 3105 3107 3108 3110 3112 3112 3112 3114 3116 3119 3111 3108 3107 3107 3108 3108 3110 3110 3112 3112 3111 3109 3108 3107 3105 3104 3103 3101 3097 3094 3090 3083 3079 3076 3075
3105 3104 3102 3102 3101 3100 3098 3098 3096 3098 3097 3099 3099 3100 3101 3104 3108 3108 3108 3111 3115 3110 3107 3106 3105 3105 3105 3106 3108 3108 3108 3109 3109 3107 3104 3103 3100 3100 3099 3098 3095 3092 3089 3083 3082 3079 3072
3097 3096 3095 3095 3094 3093 3091 3091 3091 3090 3090 3092 3092 3094 3093 3097 3100 3103 3104 3108 3107 3103 3101 3100 3102 3103 3104 3104 3104 3105 3105 3105 3105 3104 3102 3099 3097 3097 3097 3096 3093 3090 3089 3089 3095 3085 3067
3090 3088 3087 3086 3086 3085 3084 3083 3083 3084 3084 3087 3087 3088 3087 3091 3093 3097 3101 3100 3099 3099 3100 3098 3099 3099 3101 3101 3102 3102 3101 3102 3101 3102 3103 3098 3093 3094 3093 3092 3093 3088 3087 3086 3083 3076 3072
3082 3079 3079 3077 3077 3076 3075 3075 3076 3077 3077 3079 3081 3080 3082 3083 3086 3090 3094 3091 3094 3096 3096 3096 3097 3099 3098 3098 3099 3098 3099 3099 3100 3099 3099 3096 3090 3089 3089 3089 3088 3086 3086 3084 3082 3082 3073
3074 3072 3070 3071 3068 3068 3066 3067 3069 3068 3069 3070 3072 3073 3075 3076 3080 3083 3085 3086 3087 3093 3094 3095 3094 3095 3096 3096 3095 3095 3096 3096 3096 3096 3096 3095 3091 3088 3086 3085 3083 3084 3081 3081 3080 3076 3072
3069 3067 3066 3067 3065 3063 3061 3061 3061 3062 3063 3063 3065 3068 3070 3072 3076 3076 3078 3082 3084 3086 3090 3090 3090 3090 3092 3094 3091 3092 3092 3093 3093 3093 3092 3092 3086 3080 3079 3079 3077 3077 3077 3078 3077 3070 3063
3063 3063 3062 3064 3062 3061 3059 3057 3058 3059 3059 3060 3061 3064 3065 3068 3068 3071 3073 3077 3079 3082 3085 3084 3085 3086 3087 3090 3089 3086 3086 3088 3087 3089 3089 3088 3083 3079 3074 3076 3076 3075 3075 3075 3073 3068 3054
3059 3057 3058 3060 3059 3059 3058 3056 3055 3057 3057 3059 3060 3061 3062 3063 3064 3068 3070 3071 3073 3076 3079 3079 3079 3080 3081 3083 3083 3080 3081 3083 3081 3082 3083 3082 3078 3079 3076 3074 3074 3068 3068 3067 3067 3060 3045
3056 3052 3053 3055 3055 3056 3056 3055 3055 3054 3054 3056 3056 3056 3057 3058 3062 3064 3067 3068 3068 3071 3072 3072 3073 3074 3076 3076 3075 3074 3076 3076 3077 3077 3077 3077 3071 3071 3070 3069 3066 3060 3055 3053 3051 3043 3045
3052 3049 3047 3049 3051 3052 3052 3052 3052 3051 3052 3053 3053 3054 3054 3057 3059 3061 3061 3060 3063 3067 3067 3067 3068 3066 3068 3069 3069 3068 3069 3069 3070 3070 3070 3069 3066 3065 3061 3063 3060 3050 3047 3040 3038 3033 3028
3047 3045 3043 3044 3046 3046 3046 3047 3048 3048 3048 3048 3049 3050 3052 3053 3055 3057 3056 3058 3060 3061 3062 3064 3064 3063 3064 3066 3064 3063 3063 3063 3063 3064 3064 3064 3064 3062 3052 3057 3054 3043 3036 3033 3032 3029 3026
3042 3041 3040 3039 3041 3042 3042 3042 3043 3044 3044 3045 3045 3047 3048 3047 3050 3052 3052 3053 3056 3058 3059 3060 3061 3061 3063 3060 3058 3057 3055 3054 3055 3055 3060 3057 3060 3061 3053 3053 3045 3033 3031 3031 3027 3023 3021
3038 3037 3037 3036 3036 3037 3038 3038 3038 3039 3040 3040 3041 3042 3041 3041 3044 3047 3048 3047 3050 3053 3053 3054 3056 3058 3055 3054 3052 3049 3048 3046 3045 3046 3049 3051 3053 3052 3052 3047 3032 3028 3030 3026 3023 3017 3017
3034 3033 3033 3033 3033 3033 3033 3034 3034 3035 3035 3035 3035 3035 3036 3035 3036 3040 3040 3043 3043 3045 3047 3049 3050 3049 3050 3048 3048 3046 3044 3043 3043 3041 3042 3044 3043 3046 3044 3039 3031 3023 3024 3023 3022 3014 3013
3027 3027 3028 3028 3028 3028 3029 3029 3029 3030 3031 3031 3030 3029 3030 3028 3030 3032 3035 3035 3036 3039 3039 3040 3039 3042 3042 3041 3040 3039 3037 3038 3036 3034 3038 3039 3037 3035 3036 3032 3019 3019 3019 3020 3021 3019 3011
3022 3021 3021 3022 3022 3023 3024 3024 3025 3025 3026 3026 3026 3025 3024 3021 3023 3026 3028 3027 3030 3032 3030 3032 3034 3033 3035 3034 3034 3031 3027 3025 3023 3023 3025 3028 3030 3028 3028 3026 3017 3016 3016 3015 3015 3013 3010
3015 3014 3014 3015 3016 3016 3017 3018 3019 3020 3020 3020 3021 3019 3018 3016 3017 3020 3021 3023 3024 3025 3022 3022 3023 3027 3027 3028 3026 3024 3019 3016 3014 3011 3016 3015 3017 3018 3019 3011 3012 3011 3011 3012 3012 3011 3009